Regional Weather Roundup
Issued by NWS

Home | Current Version | Previous Version | Graphics & Text | Print | Product List | Glossary On
Versions: 1 2 3 4 5 6 7 8 9 10 11 12 13 14 15 16 17 18 19 20 21 22 23 24 25 26 27 28 29 30 31 32 33 34 35 36 37 38 39 40 41 42 43 44 45 46 47 48 49 50
000
ASUS43 KDMX 171306
RWRIA

WEATHER ROUNDUP FOR IOWA
NATIONAL WEATHER SERVICE DES MOINES IA
700 AM CST SUN DEC 17 2017

NOTE: "FAIR" INDICATES FEW OR NO CLOUDS BELOW 12,000 FEET WITH NO
SIGNIFICANT WEATHER AND/OR OBSTRUCTIONS TO VISIBILITY.

* - THESE STATIONS ARE NOT NWS STATIONS...THUS NOT UNDER NWS
QUALITY CONTROL.  THEY ALSO DO NOT REPORT WEATHER SUCH
AS PRECIPITATION OR FOG.

IAZ001>003-012>014-020>022-031>034-043>046-171400-
   NORTHWEST IOWA

CITY           SKY/WX    TMP DP  RH WIND       PRES   REMARKS
CARROLL *      CLOUDY    25  23  93 N12       30.00R WCI  14
CHEROKEE *     CLOUDY    28  28 100 N13       30.01F FOG     WCI  17
LE MARS *      CLOUDY    27  27 100 N14       30.03F WCI  15
ORANGE CITY *  CLOUDY    27  27 100 NE7       30.03F FOG     WCI  19
SHELDON *      FOG       27  27 100 NE10      30.02F VSB 3/4 WCI  17
SIOUX CITY     CLOUDY    26  25  96 N8        30.04S WCI  18
SPENCER        FOG       27  25  92 N12       30.03F VSB 1   WCI  17
STORM LAKE *   FOG       27  27 100 NE20      29.99F VSB 1/2 WCI  13
$$

IAZ055>058-069>071-079>083-090>094-171400-
   SOUTHWEST IOWA

CITY           SKY/WX    TMP DP  RH WIND       PRES   REMARKS
ATLANTIC *     CLOUDY    28  27  93 NE6       29.99R WCI  22
AUDUBON *      CLOUDY    27  23  86 N6        29.99R WCI  20
CLARINDA *       N/A     34  28  80 S3        30.00R
COUNCIL BLFS * CLOUDY    30  30 100 N9        29.99R WCI  22
CRESTON *      CLOUDY    32  27  80 NE3       29.99R
HARLAN  *      CLOUDY    27  27 100 N10       30.02R WCI  17
LAMONI         CLOUDY    39  27  62 SW12      29.98R WCI  32
RED OAK *      CLOUDY    32  28  86 N5        29.99R WCI  27
SHENANDOAH *   CLOUDY    34  28  80 CALM      29.99R
$$

IAZ047>049-059>061-072>074-084-171400-
   CENTRAL IOWA

CITY           SKY/WX    TMP DP  RH WIND       PRES   REMARKS
AMES           CLOUDY    28  26  92 NE6       30.00R WCI  22
ANKENY *       CLOUDY    28  25  86 N3        30.01R
BOONE *        CLOUDY    27  25  93 MISG      29.99R
CHARITON *     CLOUDY    32  27  80 CALM      29.97R
DES MOINES     CLOUDY    32  24  72 NE5       29.99R WCI  27
GRINNELL*      MOCLDY    29  26  88 E8        30.00R WCI  21
KNOXVILLE *    CLOUDY    30  25  80 E6        29.96S WCI  24
MARSHALLTOWN   PTCLDY    27  26  96 NE7       30.00R FOG     WCI  19
NEWTON *       CLOUDY    30  27  86 NE7       30.00R WCI  23
PELLA *        CLOUDY    31  25  78 E3        29.99R
PERRY *          N/A     28  24  86 N6        30.00R WCI  21
$$

IAZ004>006-015-016-023>025-035-036-171400-
   NORTH CENTRAL IOWA

CITY           SKY/WX    TMP DP  RH WIND       PRES   REMARKS
ALGONA *       CLOUDY    27  27 100 N12       30.02F WCI  16
CLARION *      FOG       27  27 100 NE10      30.01R VSB 1/4 WCI  17
ESTHERVILLE    CLOUDY    24  24 100 N13       30.04F FOG     WCI  12
FORT DODGE *   CLOUDY    23  21  92 N10       30.01S FOG     WCI  12
MASON CITY     FOG       26  25  96 NE8       30.03F VSB 1/2 WCI  18
FOREST CITY *  FOG       27  25  93 NE6       30.03F VSB 1   WCI  20
WEBSTER CITY * CLOUDY    25  25 100 N7        29.98R FOG     WCI  17
IOWA FALLS *   FOG       28  28  96 NE9       30.01S VSB 1   WCI  20
$$

IAZ007>011-017>019-026>030-037>042-050>054-066-171400-
   NORTHEAST IOWA

CITY           SKY/WX    TMP DP  RH WIND       PRES   REMARKS
CEDAR RAPIDS   CLOUDY    30  28  92 E10       29.99R FOG     WCI  21
CHARLES CITY * FOG       28  28 100 E8        30.02F VSB 3/4 WCI  20
CLINTON *      CLOUDY    30  29  96 E9        30.04R FOG     WCI  22
DECORAH *      CLOUDY    28  28 100 E7        30.03F FOG     WCI  21
DUBUQUE        CLOUDY    31  30  96 NE7       30.03R FOG     WCI  24
MONTICELLO *   CLOUDY    30  30 100 NE8       30.02S FOG     WCI  23
OELWEIN *      CLOUDY    30  30 100 E10G16    30.01F FOG     WCI  21
WATERLOO       CLOUDY    29  27  92 E7        30.02F FOG     WCI  22
$$

IAZ064-065-067-068-078-171400-
   EAST CENTRAL IOWA

CITY           SKY/WX    TMP DP  RH WIND       PRES   REMARKS
DAVENPORT      CLOUDY    30  28  92 E13       30.04R FOG     WCI  20
IOWA CITY      CLOUDY    33  28  81 E5        30.03R WCI  29
MT. PLEASANT * CLOUDY    32  26  77 E5        30.00R WCI  27
MUSCATINE *    CLOUDY    32  27  80 E3        30.02R
QUAD CITIES    CLOUDY    31  28  89 E9        30.02R WCI  23
$$

IAZ062-063-075>077-085>089-095>099-171400-
   SOUTHEAST IOWA

CITY           SKY/WX    TMP DP  RH WIND       PRES   REMARKS
BURLINGTON     CLOUDY    36  28  73 S5        30.00R WCI  32
FAIRFIELD *    CLOUDY    32  27  80 E5        29.99R WCI  27
FORT MADISON * CLOUDY    39  28  65 S6        30.01R WCI  35
KEOKUK *       MOCLDY    43  28  56 S7        30.00R
OSKALOOSA *      N/A     30  26  84 E5        29.99R WCI  25
OTTUMWA        CLOUDY    31  24  75 E6        29.98R WCI  25
WASHINGTON *   CLOUDY    30  28  93 E5        30.02R WCI  25
$$

ABBREVIATIONS USED IN REMARKS
   TC - TEMPERATURES IN CELSIUS
  WCI - WIND CHILL INDEX
   HX - HEAT INDEX
  VSB - VISIBILITY
$$





USA.gov is the U.S. government's official web portal to all federal, state and local government web resources and services.